Temp
5 6 6 6 7 7 8 9 8 8 10 10 11 12 13 13 14 14 15 15 15 15 15 15 16 16 16 16 16 16 16 16 17 18 17 17 14 13 12 12 12 12 13
4 5 5 5 5 5 6 6 5 8 8 9 10 10 11 12 13 14 15 14 15 15 15 15 15 15 16 15 14 14 15 15 15 17 17 16 14 13 12 12 12 12 13
2 2 2 3 4 5 5 3 5 5 6 8 9 10 11 11 12 13 14 15 15 14 14 14 14 15 15 15 14 14 14 14 14 14 15 14 13 12 12 11 11 11 12
0 1 2 2 2 3 3 3 4 4 5 6 7 8 9 10 11 12 13 14 15 15 14 14 14 14 15 15 14 14 14 13 13 13 13 12 11 11 11 11 9 10 11
-1 -1 -0 0 2 2 3 3 3 3 4 4 5 6 7 9 10 11 11 12 15 15 14 14 14 14 14 14 13 13 13 13 12 13 13 12 10 9 9 9 8 7 6
-0 -1 -1 0 0 1 1 2 3 3 3 2 3 4 5 6 8 8 9 9 12 15 15 14 13 13 13 13 13 13 13 13 12 12 13 12 11 10 9 8 6 4 4
-0 -1 -1 -1 -0 -0 1 1 1 2 2 2 2 2 3 4 5 5 6 6 8 13 15 14 13 13 13 13 13 13 13 13 14 12 12 12 11 11 10 7 7 6 6
-1 -1 -1 -1 -1 -1 -1 -0 0 1 1 1 1 1 2 2 1 1 4 6 9 12 14 14 13 13 13 12 12 12 12 12 12 12 13 12 12 11 10 10 8 5 5
-2 -2 -2 -2 -1 -1 -2 -2 -1 -0 0 -0 -0 -0 -1 -0 -1 -1 2 7 9 12 13 13 13 13 13 13 12 11 11 11 12 12 11 11 12 12 11 9 6 5 0
-4 -3 -3 -2 -2 -2 -2 -2 -2 -1 0 -1 -1 -2 -2 -2 -2 -2 -1 4 7 11 12 13 13 13 12 12 11 10 9 10 11 11 11 11 11 11 11 11 9 6 2
-5 -4 -4 -4 -3 -3 -3 -3 -3 -3 -1 -1 -2 -2 -3 -4 -3 -3 -2 0 4 8 11 12 12 12 12 12 11 10 11 11 10 10 9 9 10 9 9 8 8 7 5
-5 -5 -5 -5 -5 -5 -4 -4 -4 -4 -3 -3 -3 -3 -3 -4 -4 -4 -3 -2 2 5 8 11 12 12 11 11 11 11 11 10 9 6 6 5 6 5 5 6 6 6 6
-4 -4 -5 -4 -5 -5 -5 -5 -4 -5 -4 -4 -4 -3 -3 -4 -5 -5 -4 -2 -1 2 3 6 7 10 10 10 9 10 9 8 5 3 2 1 2 2 2 3 3 4 4
-4 -4 -5 -4 -5 -5 -5 -5 -5 -6 -6 -5 -6 -5 -5 -4 -5 -6 -5 -4 -2 -1 -2 -1 -0 1 4 3 3 3 4 5 4 2 -0 -1 -2 -2 -1 -0 -1 -1 -0
-4 -4 -4 -4 -5 -5 -5 -5 -6 -7 -8 -8 -7 -7 -6 -6 -6 -6 -6 -6 -5 -3 -2 -3 -2 -2 -3 -2 -2 -1 -0 -0 0 -2 -2 -4 -3 -3 -3 -3 -3 -3 -5
-5 -5 -5 -5 -5 -5 -5 -5 -5 -7 -8 -8 -8 -8 -8 -8 -7 -7 -7 -7 -7 -6 -6 -7 -7 -6 -6 -6 -5 -5 -5 -4 -4 -4 -4 -5 -5 -5 -5 -5 -4 -5 -6
-6 -6 -6 -6 -6 -6 -5 -5 -5 -6 -6 -7 -9 -9 -9 -9 -8 -8 -8 -8 -8 -8 -8 -8 -8 -8 -8 -8 -7 -7 -7 -6 -6 -6 -6 -6 -6 -6 -6 -6 -6 -6 -6
-6 -7 -6 -6 -6 -6 -6 -6 -6 -6 -6 -7 -7 -9 -9 -9 -9 -9 -9 -8 -9 -9 -9 -9 -8 -8 -9 -9 -8 -8 -8 -7 -7 -7 -7 -7 -6 -6 -6 -6 -6 -6 -6
-7 -8 -7 -7 -7 -7 -7 -6 -6 -6 -7 -7 -8 -9 -9 -10 -10 -10 -10 -10 -10 -10 -10 -10 -9 -9 -9 -8 -8 -8 -8 -8 -7 -7 -7 -7 -7 -6 -6 -6 -6 -6 -6
-7 -8 -8 -8 -8 -7 -7 -7 -7 -7 -7 -8 -10 -11 -10 -9 -10 -11 -12 -12 -12 -12 -12 -12 -11 -11 -10 -9 -9 -9 -8 -8 -8 -8 -8 -7 -7 -7 -7 -7 -7 -6 -7
-7 -8 -9 -8 -9 -9 -9 -8 -8 -8 -8 -8 -10 -13 -12 -11 -11 -12 -12 -13 -14 -14 -13 -13 -12 -11 -11 -10 -10 -9 -9 -9 -9 -8 -8 -8 -8 -8 -8 -8 -8 -8 -7
-8 -8 -9 -9 -9 -10 -10 -10 -10 -10 -10 -10 -10 -11 -12 -12 -12 -13 -13 -14 -14 -15 -15 -14 -14 -13 -12 -12 -12 -11 -10 -10 -9 -9 -9 -9 -9 -8 -8 -8 -8 -8 -8
-9 -9 -9 -10 -10 -10 -10 -11 -11 -11 -11 -11 -11 -12 -12 -13 -14 -14 -14 -15 -15 -16 -16 -16 -15 -15 -14 -13 -13 -13 -12 -12 -11 -11 -10 -10 -10 -10 -10 -9 -9 -9 -8
-10 -10 -10 -10 -11 -10 -11 -11 -11 -12 -12 -12 -12 -12 -13 -13 -14 -15 -16 -16 -16 -17 -17 -17 -17 -16 -14 -14 -13 -13 -12 -13 -12 -12 -11 -11 -11 -11 -11 -11 -11 -11 -11
-11 -10 -11 -11 -11 -11 -11 -11 -12 -12 -13 -13 -13 -13 -14 -14 -14 -15 -16 -17 -17 -17 -18 -18 -18 -17 -16 -14 -14 -13 -13 -12 -13 -13 -12 -12 -12 -12 -11 -11 -11 -11 -11
-12 -12 -12 -12 -12 -12 -12 -12 -13 -13 -13 -13 -14 -14 -14 -14 -15 -16 -16 -17 -17 -17 -18 -18 -18 -17 -15 -15 -15 -14 -13 -12 -12 -13 -13 -12 -12 -12 -12 -12 -12 -12 -12
Height
719 713 694 706 711 717 719 724 727 728 726 728 731 732 732 734 735 737 736 736 737 739 740 741 742 745 747 749 753 755 755 756 758 759 762 765 767 769 771 774 775 777 784
720 715 717 721 721 719 722 726 727 730 731 725 728 727 729 730 729 729 730 729 730 730 731 733 735 736 737 741 743 746 748 748 749 753 756 759 762 764 766 770 771 773 779
724 724 729 728 728 725 723 724 726 728 731 726 726 721 722 724 723 722 722 721 722 722 723 722 725 728 727 732 733 737 740 741 742 748 751 755 757 758 761 765 767 769 774
731 734 738 727 718 717 716 717 725 729 729 725 721 718 717 717 716 714 715 714 713 713 713 713 715 719 719 723 723 728 732 731 735 740 744 748 750 752 756 760 763 765 768
751 742 743 735 732 733 729 726 730 731 728 721 718 716 713 712 710 708 707 706 704 703 702 703 704 706 708 713 714 719 723 724 728 732 737 740 743 746 750 753 759 761 763
746 741 752 740 737 738 732 728 730 730 726 721 719 714 711 708 705 704 704 700 696 692 691 692 694 696 699 703 707 709 713 715 718 722 728 730 734 738 744 748 753 760 765
755 766 753 743 738 730 728 730 732 728 728 723 718 712 707 701 699 699 694 690 686 683 682 684 685 686 691 694 698 701 704 707 708 712 718 722 726 730 736 742 745 749 752
773 765 756 752 747 741 739 739 737 733 723 716 709 706 702 698 694 688 682 677 674 672 673 676 678 679 681 685 689 692 696 700 703 706 712 716 719 723 728 731 737 744 749
770 766 759 756 753 747 747 745 734 726 720 713 709 704 698 692 689 683 672 667 663 664 664 666 668 670 673 677 681 683 687 691 696 701 706 711 715 718 722 727 732 738 747
775 767 758 757 754 750 746 742 734 727 721 718 712 707 701 689 684 677 669 663 659 657 656 657 659 663 665 667 671 673 679 682 687 694 700 705 709 712 715 719 723 730 736
775 771 768 763 759 755 752 749 738 732 728 721 716 710 701 692 684 677 669 662 656 653 650 651 652 654 656 659 662 664 667 674 682 689 694 698 702 706 710 714 717 721 725
780 775 771 765 762 760 756 749 743 738 732 724 718 710 702 694 684 676 668 661 652 647 646 645 645 647 649 652 655 658 662 670 675 683 688 693 697 702 706 710 714 718 721
785 781 776 771 766 762 756 751 747 743 735 729 721 714 707 699 688 677 669 662 654 646 644 642 641 641 642 647 650 652 659 662 669 676 683 688 694 699 703 707 711 714 718
785 781 776 771 767 763 759 754 752 748 742 735 728 721 715 706 695 684 675 668 662 655 652 648 645 645 642 646 649 651 657 660 665 669 678 686 693 699 703 706 709 713 717
790 787 781 777 773 769 765 760 758 756 754 746 738 733 725 714 706 696 684 676 671 665 659 657 653 653 651 650 655 658 657 661 666 671 677 687 692 699 703 708 711 714 718
795 790 787 783 778 774 769 766 765 763 759 753 749 743 733 726 712 703 694 684 677 672 664 668 668 664 668 662 664 668 667 668 670 673 680 689 694 700 704 710 713 717 723
800 795 791 787 782 779 777 773 768 765 763 757 753 748 740 732 717 708 703 696 687 679 679 681 682 679 677 674 677 675 676 678 678 679 685 691 697 705 707 711 718 724 729
804 799 795 791 789 785 782 780 777 771 767 763 757 754 749 742 724 717 712 704 694 695 696 694 693 691 690 687 687 688 687 690 690 690 696 696 704 709 714 718 724 729 735
808 804 799 798 794 792 789 786 782 779 776 773 767 761 756 743 734 725 722 716 714 716 712 707 706 704 703 701 701 700 697 700 703 703 706 708 712 714 722 726 731 735 740
814 810 807 803 800 797 795 792 790 786 785 782 777 771 761 752 743 739 736 733 731 731 726 722 718 715 714 713 713 713 711 712 713 715 718 721 723 723 730 734 740 745 750
819 815 812 809 807 805 802 799 796 793 791 788 784 778 772 765 761 758 755 751 748 745 741 736 731 728 727 726 726 726 725 725 727 729 730 732 734 736 740 744 747 753 758
823 820 817 815 813 810 807 805 802 800 797 793 789 785 781 776 773 770 767 763 759 755 751 748 744 742 740 739 739 738 737 739 740 742 743 743 745 747 749 751 754 759 763
827 824 821 819 817 815 812 810 808 805 802 799 796 792 789 786 783 780 776 773 770 766 762 758 757 755 753 751 750 750 749 749 750 751 752 752 753 754 756 757 761 764 768
831 829 826 824 822 819 817 815 813 810 808 805 802 799 797 794 791 788 785 781 778 775 771 768 766 764 763 760 759 758 756 757 756 757 757 757 759 760 761 764 767 769 773
834 832 830 828 826 823 821 819 817 814 812 810 807 805 803 801 798 795 792 788 785 782 780 777 774 772 770 769 767 766 765 763 763 763 762 763 765 766 768 769 772 775 776
838 836 833 831 829 827 825 822 820 818 816 814 812 810 808 806 804 801 798 795 792 790 787 784 782 779 776 775 773 772 771 770 768 768 768 770 771 772 774 775 777 779 781
Wind_Speed
20 19 26 21 17 13 12 8 5 4 3 6 9 11 13 17 21 24 27 30 31 33 33 32 34 31 28 26 26 26 26 23 14 21 14 12 13 15 20 22 28 38 39
24 24 22 18 16 16 13 11 10 9 8 6 10 12 14 18 20 23 27 26 29 31 34 33 32 31 30 27 27 28 27 26 20 19 19 15 16 16 20 23 30 36 37
27 24 20 18 16 15 16 16 13 13 14 11 12 12 16 19 21 24 26 28 31 33 33 32 33 33 29 27 29 28 28 25 25 17 17 16 15 15 19 23 26 35 37
28 23 20 23 27 26 23 22 19 17 18 15 15 15 17 21 22 23 26 29 31 32 34 33 33 35 31 31 30 30 27 26 25 22 17 15 15 16 24 26 23 27 32
19 24 24 22 21 20 18 19 18 17 18 18 19 19 19 21 23 23 25 29 31 32 32 35 36 37 35 33 30 31 29 26 23 22 18 13 12 11 19 20 18 25 21
29 30 25 24 21 21 21 21 21 20 20 19 18 19 21 21 22 24 28 32 32 32 31 32 36 39 41 39 39 35 33 30 27 23 21 19 20 20 22 23 20 11 4
26 18 23 26 26 29 27 24 23 22 20 19 18 18 20 21 22 27 30 35 34 33 32 30 32 32 37 39 42 41 38 39 37 31 24 22 21 22 27 24 26 21 16
19 21 24 24 24 24 24 24 23 22 22 22 22 21 19 18 23 28 31 33 35 32 33 32 31 32 36 35 37 42 39 38 33 29 26 25 27 25 31 32 32 23 15
24 23 24 24 23 24 23 23 25 26 25 26 24 23 21 22 25 31 29 26 28 29 29 32 31 31 33 38 37 34 38 36 35 34 30 24 27 27 30 28 28 25 5
23 24 26 25 24 25 26 26 26 26 25 25 25 23 23 27 30 32 33 23 20 22 25 28 33 33 36 37 39 37 34 37 34 33 34 28 25 28 29 30 34 26 13
24 22 22 22 22 23 24 24 27 27 24 25 25 23 24 28 30 32 31 26 18 20 26 32 34 37 41 41 43 40 40 41 35 30 28 27 24 27 33 33 31 32 30
23 23 23 25 23 22 22 25 25 26 25 27 26 27 28 31 31 35 30 27 22 17 25 34 35 37 39 39 46 41 39 38 35 29 25 22 23 26 26 26 27 28 31
20 21 22 22 22 23 22 24 24 26 27 27 28 27 30 31 33 34 34 26 23 12 10 20 24 33 37 36 41 38 37 34 34 28 25 21 20 21 21 20 19 19 17
21 23 24 23 25 25 23 24 24 27 28 26 29 28 30 29 32 35 32 29 20 14 16 12 12 13 22 23 22 24 25 27 31 27 26 23 22 22 22 23 24 25 27
19 21 23 21 22 22 22 21 23 24 27 27 30 28 27 28 30 29 29 26 21 12 16 19 20 18 18 19 16 14 18 19 24 26 27 24 25 23 22 23 25 17 20
18 20 20 20 20 21 21 20 17 19 22 27 26 30 26 26 26 25 29 28 25 21 24 22 23 23 19 20 19 16 17 20 22 26 27 23 23 21 24 22 24 26 26
17 19 18 20 21 21 22 21 22 22 19 22 27 27 30 29 31 29 26 29 35 36 30 25 23 22 23 25 21 23 22 20 22 24 25 25 25 23 25 24 24 25 26
19 19 18 18 19 19 19 20 20 21 22 23 23 28 29 30 34 35 30 29 37 35 30 28 27 26 24 24 24 24 27 25 24 26 24 26 24 23 23 24 23 24 23
20 21 19 17 17 17 17 17 18 18 20 21 23 24 28 28 31 36 35 35 30 29 27 28 28 28 27 26 26 27 29 27 25 27 25 25 25 27 25 25 25 24 22
17 19 18 17 17 17 17 17 17 17 17 19 22 25 25 25 31 32 33 32 30 28 29 28 29 30 30 29 28 27 28 27 27 26 25 25 24 26 24 22 20 19 18
16 17 18 17 17 17 16 16 16 16 16 16 19 24 24 22 23 24 25 26 27 27 26 28 31 31 31 30 27 27 27 26 24 23 23 22 22 23 22 21 20 19 18
15 16 17 17 16 17 17 16 15 15 16 16 17 19 21 21 21 21 22 22 22 22 23 24 28 29 29 27 25 25 25 23 20 18 18 18 18 18 18 18 18 17 17
14 15 15 16 16 16 16 16 17 16 15 16 16 18 19 19 19 19 19 20 19 20 20 22 21 22 22 23 22 20 19 18 16 14 15 16 16 16 16 17 16 16 14
13 13 14 14 15 15 15 15 15 15 15 15 16 16 17 17 17 18 17 17 17 18 18 18 21 22 21 21 21 20 18 15 15 15 15 15 15 15 15 16 15 15 14
12 12 12 12 13 13 13 14 14 14 14 14 14 14 14 15 16 16 16 16 16 16 18 19 18 18 19 20 20 18 17 16 16 15 15 15 16 15 14 14 13 13 13
11 11 11 11 11 12 12 12 12 13 13 12 12 12 13 13 13 14 14 15 15 15 16 16 17 18 17 17 17 16 15 14 14 15 13 12 13 13 13 13 12 11 10
Wind_Direction
39 43 45 43 50 60 62 50 16 329 298 271 269 263 253 245 241 240 237 235 230 228 227 227 228 227 224 221 222 229 223 217 220 241 231 230 217 219 224 233 232 210 209
33 37 39 36 37 44 38 23 7 339 306 292 275 268 265 256 251 246 245 241 236 232 231 229 232 228 225 219 215 223 220 212 204 229 232 223 222 214 220 231 222 214 212
27 28 30 32 34 38 30 12 358 341 317 308 284 279 275 267 259 253 250 247 242 239 236 224 226 229 222 220 216 220 219 207 202 209 222 220 216 212 212 213 206 207 216
19 16 14 21 17 16 15 8 350 332 321 313 303 289 277 273 267 261 254 250 248 243 237 233 229 231 225 225 213 216 214 198 196 199 207 197 205 202 207 198 194 196 201
16 25 13 17 20 11 14 6 344 330 321 319 309 297 287 277 269 266 260 257 253 246 240 235 233 228 226 229 215 212 210 198 195 195 203 193 183 176 192 198 191 195 188
18 24 2 13 16 4 8 1 345 335 331 323 308 300 293 281 276 275 268 270 265 250 242 235 231 229 233 234 225 215 213 203 194 194 204 204 198 199 193 194 182 165 181
17 7 11 11 11 10 5 357 345 341 327 321 315 311 304 301 293 285 285 280 273 252 242 233 229 224 233 231 225 225 221 217 211 198 203 209 196 197 198 187 192 189 190
20 16 18 14 12 12 4 353 345 338 337 337 335 329 321 311 312 306 291 282 273 253 239 237 228 223 231 220 219 219 215 210 208 205 211 213 211 204 210 211 201 180 172
13 12 17 14 11 13 6 355 355 350 348 346 342 339 338 333 336 344 331 300 279 248 235 229 228 227 233 227 216 207 205 208 213 218 216 215 221 215 214 200 176 167 134
10 10 15 11 11 10 7 1 360 359 356 349 348 346 344 347 349 346 350 319 281 249 248 224 232 230 230 228 211 202 199 207 208 215 217 216 209 210 220 222 208 182 155
360 8 11 13 11 9 7 5 7 4 358 357 354 350 352 353 351 350 353 345 306 275 248 239 233 235 225 225 217 209 207 209 204 208 209 208 206 202 204 207 214 197 183
1 5 7 12 11 7 5 6 8 7 3 359 354 355 354 355 357 355 353 1 335 279 262 247 242 237 226 225 209 212 212 210 198 192 185 178 179 184 191 197 201 200 205
4 5 5 9 13 13 10 9 9 7 9 4 1 355 350 353 357 358 360 1 20 16 294 256 243 226 211 210 206 209 212 195 185 171 170 171 175 176 171 164 171 181 179
5 5 5 9 7 12 16 17 14 13 8 8 4 355 352 353 360 2 2 4 11 37 51 72 116 135 168 163 162 169 184 185 181 169 164 161 157 157 154 153 145 137 125
6 4 8 8 8 8 14 21 20 19 18 11 10 1 356 356 0 8 15 17 10 41 62 51 57 65 63 96 103 128 149 156 156 156 147 141 142 148 138 145 139 136 113
9 8 7 6 9 10 9 10 16 18 18 23 18 17 12 8 14 19 28 35 42 44 59 40 38 42 38 54 65 67 85 113 126 133 130 129 126 124 122 122 122 113 109
9 11 10 10 12 10 8 8 4 5 14 19 20 18 22 21 28 30 31 41 47 51 45 44 39 41 46 48 52 62 61 75 102 104 113 114 115 111 111 106 107 109 105
11 14 14 13 11 11 10 7 7 9 4 5 13 16 18 24 38 38 35 46 43 41 43 39 42 42 43 54 54 61 67 67 75 85 89 96 101 104 103 103 105 105 105
11 10 11 11 14 12 10 11 11 12 11 9 9 12 11 20 33 42 40 43 41 37 35 42 42 45 44 50 58 61 69 70 73 77 78 84 92 95 92 94 97 99 103
10 13 14 15 15 16 15 16 15 16 16 16 17 14 13 24 30 30 34 34 34 35 33 38 43 46 45 46 49 54 61 62 64 69 73 77 80 89 91 92 95 98 101
11 12 16 20 20 18 19 19 18 18 17 19 21 19 23 32 34 34 35 36 35 32 34 36 47 57 59 52 49 53 56 58 62 68 72 77 82 85 92 97 100 103 106
15 16 18 20 21 22 22 21 21 21 21 19 18 18 24 34 34 35 34 35 36 39 40 41 44 49 57 60 58 59 60 60 62 68 74 79 84 88 92 95 100 105 109
20 20 21 23 22 23 26 26 26 23 23 24 23 24 25 28 30 30 33 32 33 38 41 47 48 46 53 59 60 63 58 58 63 75 81 84 84 86 87 89 92 96 100
21 20 20 21 22 25 25 26 26 27 26 26 27 28 27 28 28 27 28 31 33 36 39 43 47 50 52 56 57 59 66 64 66 70 77 81 83 86 90 92 95 99 100
23 22 22 20 19 19 20 24 25 26 27 27 27 27 27 27 27 26 27 28 33 35 37 41 44 45 52 58 61 63 66 71 71 71 75 80 84 84 88 91 93 93 96
23 24 24 21 21 19 19 19 21 23 24 24 25 26 26 26 27 27 26 29 32 33 37 36 37 43 48 53 56 58 63 69 73 74 71 75 79 81 83 86 88 91 91